Погода в Ошакати

Намибия     17°46′57″S   15°42′11″E
темп.,
°C
ветер,
м/с
пор.,
м/с
влажн.,
%
обл.,
%
осадки,
мм/ч
давл.,
гПа
погр.,
м
28 июля, ср
ср2823:00+14вюв45300 0.0 101957
02:00+12в46340 0.0 101976
05:00+10в49380 0.0 1019127
08:00+9всв410420 0.0 1021189
11:00+20св68220 0.0 1020788
14:00+25ссв22160 0.0 10161977
17:00+25ююв21140 0.0 10142047
20:00+18ю45220 0.0 101747
29 июля, чт
чт2923:00+16юв572622 0.0 101992
02:00+14вюв4730100 0.0 102094
05:00+12в473550 0.0 101997
08:00+10в410405 0.0 1022183
11:00+22всв792192 0.0 1021850
14:00+27в551320 0.0 10172389
17:00+27в451182 0.0 10152551
20:00+19юв561864 0.0 101859
30 июля, пт
пт3023:00+16вюв59228 0.0 1020122
02:00+14в51424100 0.0 1021214
05:00+12в5152799 0.0 1021258
08:00+12в6172912 0.0 1023345
11:00+22в912175 0.0 1022959
14:00+27в66120 0.0 10182116
17:00+27вюв45114 0.0 10162416
20:00+19вюв46170 0.0 101950
31 июля, сб
сб3123:00+16в511200 0.0 1022147
02:00+14в513250 0.0 1021179
05:00+13в515290 0.0 1021237
08:00+12в515340 0.0 1023296
11:00+23всв912200 0.0 1022862
14:00+28всв77130 0.0 10172203
17:00+28в56120 0.0 10152586
20:00+20вюв58200 0.0 101889
1 августа, вс
вс123:00+17в614240 0.0 1021205
02:00+16в515270 0.0 1020266
05:00+15в617280 0.0 1020362
08:00+13в515350 0.0 1023372
11:00+23всв911210 0.0 1021996
14:00+29св54150 0.0 10162322
17:00+29в23130 0.0 10142694
20:00+21ююв44200 0.0 101730